Location: Jaite
(41.2884°N, 81.5737°W)
Time: 04:58:59
(UTC+00:00)

Cosmos 2237 Rocket - Pass Details

Date: 15 November 2025
Orbit: 836 x 847 km, 71.0° (Epoch: 04 December)

Event Time Altitude Azimuth Distance (km) Brightness Sun altitude
Exits shadow 08:43:12 20° 46° (NE) 1,844 4.3 -39.7°
Drops below altitude 10° 08:45:01 10° 37° (NE) 2,463 5.0 -39.3°
Sets 08:47:34 0° 31° (NNE) 3,400 5.8 -38.9°
